This is the latest recevied weather packets stored in our database for station/object HS2LXA-13. If no packets are shown the sender has not sent any weather packets the latest 10 day(s).
| Time | Temp. | Humidity | Pressure | Rain* | Wind** | Luminosity | Snow |
|---|---|---|---|---|---|---|---|
| 1777721383 | 31.67° C | 75% | 1007.3 hPa | 0 mm | - | 0 W/m² | - |
| 1777720784 | 32.22° C | 75% | 1007.2 hPa | 0 mm | - | 0 W/m² | - |
| 1777720181 | 32.22° C | 75% | 1007.1 hPa | 0 mm | - | 0 W/m² | - |
| 1777719580 | 32.22° C | 74% | 1007.1 hPa | 0 mm | - | 0 W/m² | - |
| 1777718978 | 32.22° C | 76% | 1007 hPa | 0 mm | - | 0 W/m² | - |
| 1777718376 | 32.78° C | 75% | 1007 hPa | 0 mm | - | 0 W/m² | - |
| 1777717777 | 32.78° C | 78% | 1006.8 hPa | 0 mm | - | 0 W/m² | - |
| 1777717173 | 32.78° C | 79% | 1006.8 hPa | 0 mm | - | 0 W/m² | - |
| 1777716572 | 32.78° C | 78% | 1006.9 hPa | 0 mm | - | 0 W/m² | - |
| 1777715970 | 32.78° C | 79% | 1006.9 hPa | 0 mm | - | 0 W/m² | - |
| 1777715367 | 33.33° C | 80% | 1007.2 hPa | 0 mm | - | 0 W/m² | - |
| 1777714766 | 32.78° C | 78% | 1007.3 hPa | 0 mm | - | 0 W/m² | - |
| 1777714158 | 32.78° C | 77% | 1007.3 hPa | 0 mm | - | 0 W/m² | - |
| 1777713556 | 33.89° C | 75% | 1007.4 hPa | 0 mm | - | 0 W/m² | - |
| 1777712954 | 34.44° C | 76% | 1007.2 hPa | 0 mm | - | 0 W/m² | - |
| 1777712352 | 35° C | 76% | 1007.1 hPa | 0 mm | - | 0 W/m² | - |
| 1777711751 | 34.44° C | 76% | 1007.2 hPa | 0 mm | - | 0 W/m² | - |
| 1777711150 | 34.44° C | 75% | 1007.2 hPa | 0 mm | - | 0 W/m² | - |
| 1777710548 | 35° C | 76% | 1007.3 hPa | 0 mm | - | 0 W/m² | - |
| 1777709946 | 34.44° C | 75% | 1007.4 hPa | 0 mm | - | 0 W/m² | - |
| 1777709345 | 35° C | 74% | 1007.5 hPa | 0 mm | - | 0 W/m² | - |
| 1777708339 | 35.56° C | 74% | 1007.9 hPa | 0 mm | - | 0 W/m² | - |
| 1777707742 | 35° C | 72% | 1008.1 hPa | 0 mm | - | 0 W/m² | - |
| 1777707136 | 35.56° C | 72% | 1008.3 hPa | 0 mm | - | 0 W/m² | - |
| 1777706536 | 35.56° C | 72% | 1008.3 hPa | 0 mm | - | 0 W/m² | - |
* Rain latest hour (hover to see other rain measurements)
** Current wind speed in m/s (hover to see current wind gust speed)